Regional Weather Roundup
Issued by NWS

Home | Current Version | Previous Version | Text Only | Print | Product List | Glossary Off
Versions: 1 2 3 4 5 6 7 8 9 10 11 12 13 14 15 16 17 18 19 20 21 22 23 24 25 26 27 28 29 30 31 32 33 34 35 36 37 38 39 40 41 42 43 44 45 46 47 48 49 50

000
ASUS43 KLOT 251110
RWRIL

ILLINOIS REGIONAL WEATHER ROUNDUP
NATIONAL WEATHER SERVICE CHICAGO/ROMEOVILLE IL
500 AM CST THU DEC 25 2014

NOTE: "FAIR" INDICATES FEW OR NO CLOUDS BELOW 12,000 FEET WITH NO
SIGNIFICANT WEATHER AND/OR OBSTRUCTIONS TO VISIBILITY.

* THESE STATIONS ARE NOT UNDER NWS QUALITY CONTROL. THEY ALSO MAY NOT
  REPORT WEATHER SUCH AS PRECIPITATION OR FOG.

ILZ001-002-007-009-015-016-024-251200-
NORTHWEST ILLINOIS

CITY           SKY/WX    TMP DP  RH WIND       PRES   REMARKS
MOLINE         CLOUDY    33  27  78 W13       29.83R WCI  24
STERLING*      CLOUDY    34  27  75 W9        29.83R WCI  26
SAVANNA*       CLOUDY    33  29  86 SW8       29.81S WCI  26
$$

ILZ003-004-008-010-011-017-018-251200-
NORTH CENTRAL ILLINOIS

CITY           SKY/WX    TMP DP  RH WIND       PRES   REMARKS
ROCKFORD       CLOUDY    33  27  78 W16G25    29.82R WCI  23
FREEPORT*      CLOUDY    32  29  90 W12       29.81R WCI  23
ROCHELLE*      CLOUDY    32  29  88 W15G22    29.83R WCI  22
DE KALB*       CLOUDY    32  28  84 W18       29.81R WCI  20
PERU*          CLOUDY    35  30  82 W15       29.85R WCI  25
$$

ILZ005-006-012>014-019>023-251200-
NORTHEAST ILLINOIS

CITY           SKY/WX    TMP DP  RH WIND       PRES   REMARKS
CHICAGO-OHARE  CLOUDY    34  27  75 W17G26    29.80R WCI  23
CHICAGO-MIDWAY CLOUDY    36  30  79 W15G22    29.83R WCI  27
AURORA         CLOUDY    34  28  79 W9        29.82R WCI  27
LANSING*       CLOUDY    34  30  85 W15       29.84R WCI  24
JOLIET*        CLOUDY    33  29  86 SW6       29.84S WCI  27
WAUKEGAN       CLOUDY    34  27  75 VRB7      29.77R WCI  28
DUPAGE AIRPORT CLOUDY    34  28  79 W10       29.81R WCI  26
KANKAKEE*      CLOUDY    34  31  89 SW10      29.87R WCI  26
WHEELING       CLOUDY    35  28  75 W12G24    29.82R WCI  27
MORRIS*        CLOUDY    34  32  92 W7        29.84R WCI  28
ROMEOVILLE*    CLOUDY    33  30  88 W9        29.83R WCI  25
NORTHERLY ISL    N/A     36  29  76 W12         N/A  WCI  28
$$

LMZ740>746-251200-
SOUTHERN LAKE MICHIGAN

STATION/POSITION SKY/WX   TEMP    WIND        PRES    VSBY  WAVE
                          AIR SEA DIR/SP/G                  HT/PER
                          (F)     (DEG/KT/KT) (MB)    (MI)  (FT/S)
WAUKEGAN HARBOR            35                   N/A
HARRISON CRIB              36     250/ 19/ 28   N/A
BURNHAM HARBOR             36     280/  8/ 15   N/A
CALUMET HARBOR             35     240/ 10/ 16 1008.9R
MICHIGAN CITY              37     240/ 25/ 29   N/A
$$

ILZ025>027-034>036-040-047-049-050-058-095>099-251200-
WEST-CENTRAL ILLINOIS

CITY           SKY/WX    TMP DP  RH WIND       PRES   REMARKS
QUINCY         CLOUDY    34  29  82 SW8       29.88R WCI  27
GALESBURG*     CLOUDY    33  30  88 SW10      29.85R WCI  25
MACOMB*        CLOUDY    34  31  87 SW9       29.88S WCI  27
JACKSONVILLE*  CLOUDY    37  32  81 SW9       29.90S WCI  30
PITTSFIELD*    CLOUDY    36  31  82 S6        29.90S WCI  31
$$

ILZ028>032-037-038-041>044-048-051>054-059>061-251200-
CENTRAL ILLINOIS

CITY           SKY/WX    TMP DP  RH WIND       PRES   REMARKS
PONTIAC        CLOUDY    36  32  85 W15       29.87R WCI  26
BLOOMINGTON    CLOUDY    35  32  89 W13       29.89R WCI  26
DECATUR        CLOUDY    36  30  79 W10       29.92R WCI  28
PEORIA         CLOUDY    36  28  73 SW12      29.87R WCI  28
LACON*         CLOUDY    34  28  79 W9        29.86R WCI  27
LINCOLN*       CLOUDY    37  32  82 W7        29.91R WCI  31
SPRINGFIELD    CLOUDY    37  30  75 W14G20    29.91R WCI  28
TAYLORVILLE    CLOUDY    34  32  93 SW8       29.93R WCI  27
$$

ILZ033-039-045-046-055>057-062-063-251200-
EAST-CENTRAL ILLINOIS

CITY           SKY/WX    TMP DP  RH WIND       PRES   REMARKS
CHAMPAIGN      CLOUDY    35  31  85 SW13      29.90R WCI  26
DANVILLE*      CLOUDY    35  32  90 SW12      29.88R WCI  26
RANTOUL*       CLOUDY    36  33  88 W10       29.90R WCI  29
MATTOON        CLOUDY    36  30  79 W7        29.93R WCI  30
PARIS*         CLOUDY    36  33  89 W7        29.93R WCI  30
$$

ILZ079-100>102-251200-
SOUTHWEST ILLINOIS

CITY           SKY/WX    TMP DP  RH WIND       PRES   REMARKS
ALTON          CLOUDY    37  31  79 SW6       29.94S WCI  32
BELLEVILLE     CLOUDY    37  32  82 SW9       29.95S WCI  31
CAHOKIA*       CLOUDY    38  31  76 W6        29.96R WCI  33
SPARTA*        CLOUDY    37  31  81 SW5       29.99R WCI  33
$$

ILZ064>066-069>071-074>076-080>082-084>086-088>090-092>094-251200-
SOUTH-CENTRAL ILLINOIS

CITY           SKY/WX    TMP DP  RH WIND       PRES   REMARKS
CARBONDALE     CLOUDY    37  32  82 SW5       30.01R WCI  33
CAIRO*         CLOUDY    41  33  72 SW5       30.04R
EFFINGHAM*     CLOUDY    37  31  81 SW3       29.97R
MARION         CLOUDY    39  34  81 S5        30.02R
MT. VERNON     CLOUDY    37  28  70 SW8       29.99R WCI  31
CENTRALIA*     CLOUDY    37  32  83 SW6       29.97R WCI  32
SALEM*         CLOUDY    39  34  80 SW6       29.97R WCI  35
METROPOLIS*    CLOUDY    40  34  80 SW7       30.03R
$$

ILZ067-068-072-073-078-083-087-091-251200-
SOUTHEAST ILLINOIS

CITY           SKY/WX    TMP DP  RH WIND       PRES   REMARKS
LAWRENCEVILLE  CLOUDY    38  33  82 W9        29.98R WCI  31
FLORA*         CLEAR     37  34  90 SW6       29.98R WCI  32
FAIRFIELD*     CLOUDY    37  35  94 CALM      29.99R
HARRISBURG*    CLOUDY    38  34  87 W5        30.03R WCI  34
ROBINSON*      CLOUDY    37  32  82 W7        29.97R WCI  31
CARMI*         CLOUDY    40  36  85 SW7       30.01R
$$

ABBREVIATIONS USED IN REMARKS
   TC - TEMPERATURE IN CELSIUS
  WCI - WIND CHILL INDEX
   HX - HEAT INDEX
  VSB - VISIBILITY
$$




USA.gov is the U.S. government's official web portal to all federal, state and local government web resources and services.